Tracking 28794 objects as of 20-Apr-2024
HD Live streaming from Space Station
objects crossing your sky now

THOR ABLESTAR DEB

Track THOR ABLESTAR DEB now!
10-day predictions


NORAD ID: 48827
Int'l Code: 1961-015NF
Perigee: 894.2 km
Apogee: 1,413.4 km
Inclination: 68.2 °
Period: 108.3 minutes
Semi major axis: 7524 km
RCS: Unknown
Launch date: June 29, 1961
Source: United States (US)
Launch site: AIR FORCE EASTERN TEST RANGE (AFETR)

Note: This is SATELLITE DEBRIS
Your satellite tracking list
Your tracking list is empty




NASA's NSSDC Master Catalog

Two Line Element Set (TLE):
1 48827U 61015NF  24108.48815796  .00001320  00000-0  21184-2 0  9999
2 48827  68.1615  54.3614 0345008  99.1045 264.9212 13.30017497504649
Source of the keplerian elements: AFSPC